Terminal Aerodrome Forecast
Issued by NWS Pueblo, CO

Home | Current Version | Previous Version | Text Only | Print | Product List | Glossary On
Versions: 1 2 3 4 5 6 7 8 9 10 11 12 13 14 15 16 17 18 19 20 21 22 23 24 25 26 27 28 29 30
000
FTUS45 KPUB 012320
TAFALS
TAF
KALS 012320Z 0200/0224 27010KT P6SM FEW110
     FM020200 33008KT P6SM FEW110
     FM020500 VRB05KT P6SM SKC
     FM021900 24012KT P6SM SCT090=

USA.gov is the U.S. government's official web portal to all federal, state and local government web resources and services.